Hauptseite
METAR-TAF:

METAR-TAF

Flughäfen :

Fort Meade, Maryland, Vereinigte Staaten

Breite: 39-05N, Länge: 076-46W, Höhe: 46 m

Beobachtung

Neuester Wetterbericht von vor 5 Minuten, um 05:35 UTC
Windstille
Temperatur -6°C
Luftfeuchtigkeit 93%
Luftdruck 1019 hPa
Sichtweite: 16.1 km
Himmel klar

METAR: KFME 210535Z AUTO 00000KT 10SM CLR M06/M07 A3008 RMK AO1

Zeit: 00:40 (05:40 UTC)


TAF: fehlend

Wetterbeobachtungen und Prognosen von mehr als 4000 Flughäfen (METAR und TAF Bericht).

Die verfügbaren Stationen werden durch gelbe und rote Markierungen auf der Karte dargestellt.

Führen Sie die Maus auf sie, um den Namen der Station zu sehen.

Darauf klicken, um die Beobachtung von Wetterbeobachtungen und Prognosen zu sehen.

Um die Karte zu ändern : klicken Sie auf den grünen Tasten mit einem schwarzen Kreuz Zum Vergrößern, auf den grünen Button mit einem Gedankenstrich zu verkleinern, oder auf die grünen Pfeile für benachbarte Karten.


METAR-TAF: